Time,TemperatureF,DewpointF,PressureIn,WindDirection,WindDirectionDegrees,WindSpeedMPH,WindSpeedGustMPH,Humidity,HourlyPrecipIn,Conditions,Clouds,dailyrainin,SolarRadiationWatts/m^2,SoftwareType,DateUTC
2013-06-17 00:01:00,66.9,58.3,29.84,WSW,252,3.5,3.5,74,0.00,RA,,0.00,0.0,WeatherDisplay:10.37,2013-06-17 04:01:00,
2013-06-17 00:02:00,66.9,58.3,29.84,WSW,252,3.5,3.5,74,0.00,RA,,0.00,0.0,WeatherDisplay:10.37,2013-06-17 04:02:00,
2013-06-17 00:07:00,66.8,58.2,29.84,WSW,252,2.3,2.3,74,0.00,RA,,0.00,0.0,WeatherDisplay:10.37,2013-06-17 04:07:00,
2013-06-17 00:12:00,66.6,58.4,29.84,WSW,252,2.3,2.3,75,0.00,CLR,,0.00,0.0,WeatherDisplay:10.37,2013-06-17 04:12:00,
2013-06-17 00:17:00,66.4,58.2,29.85,WSW,252,2.3,2.3,75,0.00,CLR,,0.00,0.0,WeatherDisplay:10.37,2013-06-17 04:17:00,
2013-06-17 00:22:00,66.2,58.4,29.85,WSW,252,3.5,3.5,76,0.00,CLR,,0.00,0.0,WeatherDisplay:10.37,2013-06-17 04:22:00,
2013-06-17 00:27:00,65.9,58.5,29.85,WSW,252,3.5,3.5,77,0.00,CLR,,0.00,0.0,WeatherDisplay:10.37,2013-06-17 04:27:00,
2013-06-17 00:32:00,65.5,58.5,29.85,WSW,246,4.0,4.0,78,0.00,CLR,,0.00,0.0,WeatherDisplay:10.37,2013-06-17 04:32:00,
2013-06-17 00:37:00,65.2,58.2,29.85,SSW,194,4.6,4.6,78,0.00,CLR,,0.00,0.0,WeatherDisplay:10.37,2013-06-17 04:37:00,
2013-06-17 00:42:00,65.1,58.1,29.85,SSW,195,3.5,3.5,78,0.00,CLR,,0.00,0.0,WeatherDisplay:10.37,2013-06-17 04:42:00,
2013-06-17 00:47:00,64.9,58.2,29.85,SW,216,3.5,3.5,79,0.00,CLR,,0.00,0.0,WeatherDisplay:10.37,2013-06-17 04:47:00,
2013-06-17 00:52:00,64.8,58.1,29.85,SW,218,4.0,4.0,79,0.00,CLR,,0.00,0.0,WeatherDisplay:10.37,2013-06-17 04:52:00,
2013-06-17 00:57:00,64.7,58.0,29.85,SW,219,3.5,3.5,79,0.00,CLR,,0.00,0.0,WeatherDisplay:10.37,2013-06-17 04:57:00,
2013-06-17 01:02:00,64.6,57.9,29.85,SW,234,3.5,3.5,79,0.00,CLR,,0.00,0.0,WeatherDisplay:10.37,2013-06-17 05:02:00,
2013-06-17 01:07:00,64.5,57.8,29.86,SW,234,2.3,2.3,79,0.00,CLR,,0.00,0.0,WeatherDisplay:10.37,2013-06-17 05:07:00,
2013-06-17 01:12:00,64.4,57.7,29.86,SW,234,2.0,2.0,79,0.00,CLR,,0.00,0.0,WeatherDisplay:10.37,2013-06-17 05:12:00,
2013-06-17 01:17:00,64.3,57.6,29.86,SW,234,1.1,1.1,79,0.00,CLR,,0.00,0.0,WeatherDisplay:10.37,2013-06-17 05:17:00,
2013-06-17 01:22:00,64.2,57.5,29.86,SW,234,2.3,2.3,79,0.00,CLR,,0.00,0.0,WeatherDisplay:10.37,2013-06-17 05:22:00,
2013-06-17 01:27:00,64.1,57.5,29.86,SW,234,2.3,2.3,79,0.00,CLR,,0.00,0.0,WeatherDisplay:10.37,2013-06-17 05:27:00,
2013-06-17 01:32:00,64.1,57.8,29.86,SW,234,3.5,3.5,80,0.00,CLR,,0.00,0.0,WeatherDisplay:10.37,2013-06-17 05:32:00,
2013-06-17 01:37:00,64.1,58.1,29.85,SW,231,4.0,4.0,81,0.00,CLR,,0.00,0.0,WeatherDisplay:10.37,2013-06-17 05:37:00,
2013-06-17 01:42:00,64.1,58.5,29.85,SW,228,3.5,3.5,82,0.00,CLR,,0.00,0.0,WeatherDisplay:10.37,2013-06-17 05:42:00,
2013-06-17 01:47:00,64.0,58.4,29.85,SW,225,3.5,3.5,82,0.00,CLR,,0.00,0.0,WeatherDisplay:10.37,2013-06-17 05:47:00,
2013-06-17 01:52:00,63.8,58.2,29.86,WSW,238,3.5,3.5,82,0.00,CLR,,0.00,0.0,WeatherDisplay:10.37,2013-06-17 05:52:00,
2013-06-17 01:57:00,63.8,58.2,29.85,SW,220,4.6,4.6,82,0.00,CLR,,0.00,0.0,WeatherDisplay:10.37,2013-06-17 05:57:00,
2013-06-17 02:02:00,63.7,58.1,29.85,SW,219,3.5,3.5,82,0.00,CLR,,0.00,0.0,WeatherDisplay:10.37,2013-06-17 06:02:00,
2013-06-17 02:07:00,63.6,58.0,29.85,SW,223,3.5,3.5,82,0.00,CLR,,0.00,0.0,WeatherDisplay:10.37,2013-06-17 06:07:00,
2013-06-17 02:12:00,63.5,57.9,29.85,SW,217,4.6,4.6,82,0.00,CLR,,0.00,0.0,WeatherDisplay:10.37,2013-06-17 06:12:00,
2013-06-17 02:17:00,63.4,57.8,29.85,SW,219,3.5,3.5,82,0.00,CLR,,0.00,0.0,WeatherDisplay:10.37,2013-06-17 06:17:00,
2013-06-17 02:22:00,63.3,57.7,29.85,SW,220,3.5,3.5,82,0.00,CLR,,0.00,0.0,WeatherDisplay:10.37,2013-06-17 06:22:00,
2013-06-17 02:27:00,63.3,57.7,29.85,SW,217,3.5,3.5,82,0.00,CLR,,0.00,0.0,WeatherDisplay:10.37,2013-06-17 06:27:00,
2013-06-17 02:32:00,63.3,57.7,29.84,SW,217,3.5,3.5,82,0.00,CLR,,0.00,0.0,WeatherDisplay:10.37,2013-06-17 06:32:00,
2013-06-17 02:37:00,63.2,57.6,29.84,SW,224,4.0,4.0,82,0.00,CLR,,0.00,0.0,WeatherDisplay:10.37,2013-06-17 06:37:00,
2013-06-17 02:42:00,63.2,57.6,29.84,SW,229,4.6,4.6,82,0.00,CLR,,0.00,0.0,WeatherDisplay:10.37,2013-06-17 06:42:00,
2013-06-17 02:47:00,63.2,57.6,29.85,SW,225,3.5,3.5,82,0.00,CLR,,0.00,0.0,WeatherDisplay:10.37,2013-06-17 06:47:00,
2013-06-17 02:52:00,63.1,57.5,29.84,SW,234,3.5,3.5,82,0.00,CLR,,0.00,0.0,WeatherDisplay:10.37,2013-06-17 06:52:00,
2013-06-17 02:57:00,63.1,57.5,29.85,SW,228,3.5,3.5,82,0.00,CLR,,0.00,0.0,WeatherDisplay:10.37,2013-06-17 06:57:00,
2013-06-17 03:02:00,63.0,57.4,29.85,SW,234,3.5,3.5,82,0.00,CLR,,0.00,0.0,WeatherDisplay:10.37,2013-06-17 07:02:00,
2013-06-17 03:07:00,63.0,57.4,29.85,SW,234,3.5,3.5,82,0.00,CLR,,0.00,0.0,WeatherDisplay:10.37,2013-06-17 07:07:00,
2013-06-17 03:12:00,62.9,57.3,29.85,SW,228,4.0,4.0,82,0.00,CLR,,0.00,0.0,WeatherDisplay:10.37,2013-06-17 07:12:00,
2013-06-17 03:17:00,62.8,57.6,29.85,SW,215,5.0,5.0,83,0.00,CLR,,0.00,0.0,WeatherDisplay:10.37,2013-06-17 07:17:00,
2013-06-17 03:22:00,62.7,57.5,29.84,SW,215,3.5,3.5,83,0.00,CLR,,0.00,0.0,WeatherDisplay:10.37,2013-06-17 07:22:00,
2013-06-17 03:27:00,62.6,57.0,29.85,SW,218,3.5,3.5,82,0.00,CLR,,0.00,0.0,WeatherDisplay:10.37,2013-06-17 07:27:00,
2013-06-17 03:32:00,62.6,57.0,29.84,SW,219,4.0,4.0,82,0.00,CLR,,0.00,0.0,WeatherDisplay:10.37,2013-06-17 07:32:00,
2013-06-17 03:37:00,62.6,57.0,29.84,SW,219,3.5,3.5,82,0.00,CLR,,0.00,0.0,WeatherDisplay:10.37,2013-06-17 07:37:00,
2013-06-17 03:42:00,62.5,56.9,29.84,SW,217,3.5,3.5,82,0.00,CLR,,0.00,0.0,WeatherDisplay:10.37,2013-06-17 07:42:00,
2013-06-17 03:47:00,62.5,56.9,29.84,SW,217,4.0,4.0,82,0.00,CLR,,0.00,0.0,WeatherDisplay:10.37,2013-06-17 07:47:00,
2013-06-17 03:52:00,62.3,56.7,29.84,SW,214,3.5,3.5,82,0.00,CLR,,0.00,0.0,WeatherDisplay:10.37,2013-06-17 07:52:00,
2013-06-17 03:57:00,62.2,56.6,29.84,SSW,213,2.3,2.3,82,0.00,CLR,,0.00,0.0,WeatherDisplay:10.37,2013-06-17 07:57:00,
2013-06-17 04:02:00,62.1,56.5,29.84,SSW,213,3.5,3.5,82,0.00,CLR,,0.00,0.0,WeatherDisplay:10.37,2013-06-17 08:02:00,
2013-06-17 04:07:00,62.0,56.4,29.85,SSW,213,2.3,2.3,82,0.00,CLR,,0.00,0.0,WeatherDisplay:10.37,2013-06-17 08:07:00,
2013-06-17 04:12:00,61.6,56.4,29.85,SSW,213,3.5,3.5,83,0.00,CLR,,0.00,0.0,WeatherDisplay:10.37,2013-06-17 08:12:00,
2013-06-17 04:17:00,60.9,56.0,29.85,WSW,240,2.3,2.3,84,0.00,CLR,,0.00,0.0,WeatherDisplay:10.37,2013-06-17 08:17:00,
2013-06-17 04:22:00,60.6,56.1,29.85,WSW,240,1.0,1.0,85,0.00,CLR,,0.00,0.0,WeatherDisplay:10.37,2013-06-17 08:22:00,
2013-06-17 04:27:00,60.3,56.1,29.86,WSW,240,1.1,1.1,86,0.00,CLR,,0.00,0.0,WeatherDisplay:10.37,2013-06-17 08:27:00,
2013-06-17 04:32:00,60.1,55.9,29.86,WSW,240,2.0,2.0,86,0.00,CLR,,0.00,0.0,WeatherDisplay:10.37,2013-06-17 08:32:00,
2013-06-17 04:37:00,59.9,56.0,29.86,WSW,240,3.5,3.5,87,0.00,CLR,,0.00,0.0,WeatherDisplay:10.37,2013-06-17 08:37:00,
2013-06-17 04:42:00,59.9,56.3,29.87,WSW,240,1.1,1.1,88,0.00,CLR,,0.00,0.0,WeatherDisplay:10.37,2013-06-17 08:42:00,
2013-06-17 04:47:00,59.9,56.3,29.87,WSW,240,1.1,0.0,88,0.00,CLR,,0.00,0.0,WeatherDisplay:10.37,2013-06-17 08:47:00,
2013-06-17 04:52:00,59.9,56.3,29.86,WSW,240,0.0,0.0,88,0.00,CLR,,0.00,0.0,WeatherDisplay:10.37,2013-06-17 08:52:00,
2013-06-17 04:57:00,59.6,56.0,29.86,WSW,240,0.0,0.0,88,0.00,CLR,,0.00,0.0,WeatherDisplay:10.37,2013-06-17 08:57:00,
2013-06-17 05:02:00,59.5,56.3,29.86,WSW,240,0.0,0.0,89,0.00,CLR,,0.00,0.0,WeatherDisplay:10.37,2013-06-17 09:02:00,
2013-06-17 05:07:00,59.6,56.4,29.86,WSW,240,2.3,2.3,89,0.00,CLR,,0.00,0.0,WeatherDisplay:10.37,2013-06-17 09:07:00,
2013-06-17 05:12:00,59.6,56.7,29.86,WSW,240,2.3,2.3,90,0.00,CLR,,0.00,0.0,WeatherDisplay:10.37,2013-06-17 09:12:00,
2013-06-17 05:17:00,59.5,56.6,29.86,WSW,240,0.0,0.0,90,0.00,CLR,,0.00,0.0,WeatherDisplay:10.37,2013-06-17 09:17:00,
2013-06-17 05:22:00,59.4,56.2,29.86,WSW,240,1.1,1.1,89,0.00,CLR,,0.00,0.0,WeatherDisplay:10.37,2013-06-17 09:22:00,
2013-06-17 05:27:00,59.1,55.9,29.86,WSW,240,0.0,0.0,89,0.00,CLR,,0.00,0.0,WeatherDisplay:10.37,2013-06-17 09:27:00,
2013-06-17 05:32:00,58.9,56.0,29.86,WSW,240,2.3,2.3,90,0.00,CLR,,0.00,0.0,WeatherDisplay:10.37,2013-06-17 09:32:00,
2013-06-17 05:37:00,58.7,56.1,29.87,WSW,240,2.3,2.3,91,0.00,CLR,,0.00,0.0,WeatherDisplay:10.37,2013-06-17 09:37:00,
2013-06-17 05:42:00,58.6,56.0,29.87,SSW,209,4.6,4.6,91,0.00,CLR,,0.00,0.0,WeatherDisplay:10.37,2013-06-17 09:42:00,
2013-06-17 05:47:00,58.6,56.3,29.87,SSW,209,3.5,3.5,92,0.00,CLR,,0.00,0.0,WeatherDisplay:10.37,2013-06-17 09:47:00,
2013-06-17 05:52:00,58.7,56.4,29.88,SSW,208,3.5,3.5,92,0.00,CLR,,0.00,0.0,WeatherDisplay:10.37,2013-06-17 09:52:00,
2013-06-17 05:57:00,58.7,56.4,29.88,SW,219,5.8,5.8,92,0.00,CLR,,0.00,0.0,WeatherDisplay:10.37,2013-06-17 09:57:00,
2013-06-17 06:02:00,58.9,56.6,29.87,SSW,208,5.8,5.8,92,0.00,CLR,,0.00,0.0,WeatherDisplay:10.37,2013-06-17 10:02:00,
2013-06-17 06:07:00,59.1,56.8,29.87,SSW,204,4.0,4.0,92,0.00,CLR,,0.00,5.0,WeatherDisplay:10.37,2013-06-17 10:07:00,
2013-06-17 06:12:00,59.2,56.6,29.87,SSW,200,4.6,4.6,91,0.00,CLR,,0.00,7.0,WeatherDisplay:10.37,2013-06-17 10:12:00,
2013-06-17 06:17:00,59.2,56.6,29.87,SSW,199,4.6,4.6,91,0.00,CLR,,0.00,7.0,WeatherDisplay:10.37,2013-06-17 10:17:00,
2013-06-17 06:22:00,59.4,56.8,29.87,SSW,209,4.6,4.6,91,0.00,CLR,,0.00,11.0,WeatherDisplay:10.37,2013-06-17 10:22:00,
2013-06-17 06:27:00,59.5,56.9,29.87,SSW,209,1.1,0.0,91,0.00,CLR,,0.00,14.0,WeatherDisplay:10.37,2013-06-17 10:27:00,
2013-06-17 06:32:00,59.3,56.7,29.87,SSW,209,3.5,3.5,91,0.00,CLR,,0.00,16.0,WeatherDisplay:10.37,2013-06-17 10:32:00,
2013-06-17 06:37:00,59.3,56.7,29.87,SSW,209,2.3,2.3,91,0.00,CLR,,0.00,18.0,WeatherDisplay:10.37,2013-06-17 10:37:00,
2013-06-17 06:42:00,59.3,56.7,29.87,SSW,209,3.5,3.6,91,0.00,CLR,,0.00,19.0,WeatherDisplay:10.37,2013-06-17 10:42:00,
2013-06-17 06:47:00,59.5,57.2,29.87,SSW,209,3.5,3.6,92,0.00,CLR,,0.00,19.0,WeatherDisplay:10.37,2013-06-17 10:47:00,
2013-06-17 06:52:00,59.6,57.3,29.87,SSW,211,3.5,3.5,92,0.00,CLR,,0.00,19.0,WeatherDisplay:10.37,2013-06-17 10:52:00,
2013-06-17 06:57:00,59.7,57.4,29.87,SW,215,6.0,6.0,92,0.00,CLR,,0.00,21.0,WeatherDisplay:10.37,2013-06-17 10:57:00,
2013-06-17 07:02:00,60.0,57.7,29.87,SW,216,4.6,4.6,92,0.00,OVC,,0.00,23.0,WeatherDisplay:10.37,2013-06-17 11:02:00,
2013-06-17 07:07:00,60.3,58.0,29.87,SSW,202,4.6,4.6,92,0.00,OVC,,0.00,23.0,WeatherDisplay:10.37,2013-06-17 11:07:00,
2013-06-17 07:12:00,60.6,58.0,29.87,SW,217,6.9,6.9,91,0.00,OVC,,0.00,25.0,WeatherDisplay:10.37,2013-06-17 11:12:00,
2013-06-17 07:17:00,60.9,57.9,29.87,SW,218,6.9,6.9,90,0.00,OVC,,0.00,26.0,WeatherDisplay:10.37,2013-06-17 11:17:00,
2013-06-17 07:22:00,61.4,58.4,29.87,SW,220,4.6,4.6,90,0.00,OVC,,0.00,28.0,WeatherDisplay:10.37,2013-06-17 11:22:00,
2013-06-17 07:27:00,61.7,58.4,29.87,SW,216,6.9,6.9,89,0.00,OVC,,0.00,30.0,WeatherDisplay:10.37,2013-06-17 11:27:00,
2013-06-17 07:32:00,62.2,58.6,29.86,South,184,4.0,4.0,88,0.00,OVC,,0.00,30.0,WeatherDisplay:10.37,2013-06-17 11:32:00,
2013-06-17 07:37:00,62.5,58.6,29.86,SW,220,4.6,4.6,87,0.00,OVC,,0.00,30.0,WeatherDisplay:10.37,2013-06-17 11:37:00,
2013-06-17 07:42:00,62.9,59.0,29.86,SSW,211,4.0,4.0,87,0.00,OVC,,0.00,32.0,WeatherDisplay:10.37,2013-06-17 11:42:00,
2013-06-17 07:47:00,63.2,58.6,29.86,SW,217,5.8,5.8,85,0.00,OVC,,0.00,32.0,WeatherDisplay:10.37,2013-06-17 11:47:00,
2013-06-17 07:52:00,63.6,59.0,29.87,SSW,209,4.0,4.6,85,0.00,OVC,,0.00,33.0,WeatherDisplay:10.37,2013-06-17 11:52:00,
2013-06-17 07:57:00,64.0,59.1,29.87,SSW,198,5.8,5.8,84,0.00,OVC,,0.00,33.0,WeatherDisplay:10.37,2013-06-17 11:57:00,
2013-06-17 08:02:00,64.3,59.4,29.87,SSW,200,6.9,6.9,84,0.00,OVC,,0.00,33.0,WeatherDisplay:10.37,2013-06-17 12:02:00,
2013-06-17 08:07:00,64.7,59.4,29.87,SSW,209,8.1,8.1,83,0.00,OVC,,0.00,35.0,WeatherDisplay:10.37,2013-06-17 12:07:00,
2013-06-17 08:12:00,65.1,59.8,29.88,SW,227,2.3,2.3,83,0.00,OVC,,0.00,51.0,WeatherDisplay:10.37,2013-06-17 12:12:00,
2013-06-17 08:17:00,65.7,60.4,29.89,NNW,331,8.0,8.0,83,0.00,OVC,,0.00,39.0,WeatherDisplay:10.37,2013-06-17 12:17:00,
2013-06-17 08:22:00,66.2,60.2,29.88,NNW,346,4.6,4.6,81,0.00,OVC,,0.00,39.0,WeatherDisplay:10.37,2013-06-17 12:22:00,
2013-06-17 08:33:00,66.7,60.7,29.89,NW,319,8.1,0.0,81,0.00,OVC,,0.00,42.0,WeatherDisplay:10.37,2013-06-17 12:33:00,
2013-06-17 08:38:00,66.6,60.2,29.90,NW,325,8.1,8.1,80,0.00,OVC,,0.00,42.0,WeatherDisplay:10.37,2013-06-17 12:38:00,
2013-06-17 08:43:00,66.5,60.1,29.90,NNW,340,4.6,4.6,80,0.00,OVC,,0.00,44.0,WeatherDisplay:10.37,2013-06-17 12:43:00,
2013-06-17 08:48:00,66.5,59.8,29.89,NNW,338,3.0,3.0,79,0.00,OVC,,0.00,44.0,WeatherDisplay:10.37,2013-06-17 12:48:00,
2013-06-17 08:53:00,66.6,59.9,29.89,NW,313,2.3,2.3,79,0.00,OVC,,0.00,46.0,WeatherDisplay:10.37,2013-06-17 12:53:00,
2013-06-17 08:58:00,67.0,59.9,29.89,WNW,284,2.3,0.0,78,0.00,OVC,,0.00,151.0,WeatherDisplay:10.37,2013-06-17 12:58:00,
2013-06-17 09:03:00,67.6,60.5,29.90,WNW,299,5.8,5.8,78,0.00,OVC,,0.00,434.0,WeatherDisplay:10.37,2013-06-17 13:03:00,
2013-06-17 09:08:00,68.3,59.3,29.90,North,351,6.0,6.0,73,0.00,OVC,,0.00,446.0,WeatherDisplay:10.37,2013-06-17 13:08:00,
2013-06-17 09:13:00,68.9,59.9,29.90,NNW,340,6.0,6.0,73,0.00,OVC,,0.00,461.0,WeatherDisplay:10.37,2013-06-17 13:13:00,
2013-06-17 09:18:00,69.2,59.4,29.89,WNW,288,4.6,4.6,71,0.00,OVC,,0.00,478.0,WeatherDisplay:10.37,2013-06-17 13:18:00,
2013-06-17 09:23:00,69.6,59.0,29.90,NW,316,6.9,6.9,69,0.00,OVC,,0.00,492.0,WeatherDisplay:10.37,2013-06-17 13:23:00,
2013-06-17 09:29:00,69.9,59.3,29.90,NNW,344,3.5,3.5,69,0.00,OVC,,0.00,508.0,WeatherDisplay:10.37,2013-06-17 13:29:00,
2013-06-17 09:34:00,70.3,59.6,29.90,NNE,12,4.0,4.0,69,0.00,OVC,,0.00,522.0,WeatherDisplay:10.37,2013-06-17 13:34:00,
2013-06-17 09:39:00,70.6,59.9,29.90,WNW,298,3.5,3.5,69,0.00,OVC,,0.00,534.0,WeatherDisplay:10.37,2013-06-17 13:39:00,
2013-06-17 09:44:00,70.8,58.9,29.90,North,5,4.6,4.6,66,0.00,OVC,,0.00,548.0,WeatherDisplay:10.37,2013-06-17 13:44:00,
2013-06-17 09:49:00,71.0,59.1,29.90,NNW,345,3.5,3.5,66,0.00,OVC,,0.00,563.0,WeatherDisplay:10.37,2013-06-17 13:49:00,
2013-06-17 09:54:00,71.4,59.9,29.90,West,273,3.5,3.5,67,0.00,OVC,,0.00,577.0,WeatherDisplay:10.37,2013-06-17 13:54:00,
2013-06-17 09:59:00,71.8,60.2,29.90,WSW,238,3.5,3.5,67,0.00,OVC,,0.00,584.0,WeatherDisplay:10.37,2013-06-17 13:59:00,
2013-06-17 10:04:00,72.0,59.6,29.90,West,280,5.8,5.8,65,0.00,OVC,,0.00,603.0,WeatherDisplay:10.37,2013-06-17 14:04:00,
2013-06-17 10:09:00,72.2,60.2,29.90,West,273,3.5,3.5,66,0.00,OVC,,0.00,619.0,WeatherDisplay:10.37,2013-06-17 14:09:00,
2013-06-17 10:14:00,72.6,58.4,29.90,North,9,3.5,3.5,61,0.00,OVC,,0.00,631.0,WeatherDisplay:10.37,2013-06-17 14:14:00,
2013-06-17 10:19:00,73.0,59.2,29.90,WNW,292,2.3,0.0,62,0.00,OVC,,0.00,642.0,WeatherDisplay:10.37,2013-06-17 14:19:00,
2013-06-17 10:24:00,73.3,58.6,29.90,North,355,3.5,3.5,60,0.00,OVC,,0.00,652.0,WeatherDisplay:10.37,2013-06-17 14:24:00,
2013-06-17 10:29:00,73.6,59.3,29.90,West,270,4.0,4.0,61,0.00,OVC,,0.00,666.0,WeatherDisplay:10.37,2013-06-17 14:29:00,
2013-06-17 10:34:00,73.3,59.0,29.90,WNW,287,1.1,1.1,61,0.00,OVC,,0.00,679.0,WeatherDisplay:10.37,2013-06-17 14:34:00,
2013-06-17 10:39:00,73.5,58.8,29.89,WSW,256,3.5,3.5,60,0.00,OVC,,0.00,691.0,WeatherDisplay:10.37,2013-06-17 14:39:00,
2013-06-17 10:44:00,73.7,59.4,29.89,SW,214,3.5,3.5,61,0.00,OVC,,0.00,703.0,WeatherDisplay:10.37,2013-06-17 14:44:00,
2013-06-17 10:49:00,74.0,58.8,29.89,North,349,3.5,3.5,59,0.00,OVC,,0.00,714.0,WeatherDisplay:10.37,2013-06-17 14:49:00,
2013-06-17 10:54:00,74.4,59.6,29.89,West,275,4.6,4.6,60,0.00,OVC,,0.00,726.0,WeatherDisplay:10.37,2013-06-17 14:54:00,
2013-06-17 10:59:00,74.6,59.3,29.89,West,277,3.5,3.5,59,0.00,CLR,,0.00,733.0,WeatherDisplay:10.37,2013-06-17 14:59:00,
2013-06-17 11:04:00,74.8,58.1,29.90,WNW,301,3.5,3.5,56,0.00,CLR,,0.00,747.0,WeatherDisplay:10.37,2013-06-17 15:04:00,
2013-06-17 11:09:00,75.2,59.4,29.90,NW,309,4.6,4.6,58,0.00,CLR,,0.00,758.0,WeatherDisplay:10.37,2013-06-17 15:09:00,
2013-06-17 11:14:00,75.1,59.3,29.91,North,355,3.5,3.5,58,0.00,CLR,,0.00,768.0,WeatherDisplay:10.37,2013-06-17 15:14:00,
2013-06-17 11:19:00,75.1,58.3,29.90,NW,312,2.3,2.3,56,0.00,CLR,,0.00,780.0,WeatherDisplay:10.37,2013-06-17 15:19:00,
2013-06-17 11:24:00,75.3,58.0,29.90,WNW,285,3.5,3.5,55,0.00,CLR,,0.00,793.0,WeatherDisplay:10.37,2013-06-17 15:24:00,
2013-06-17 11:29:00,75.4,58.6,29.90,North,355,4.0,4.0,56,0.00,CLR,,0.00,803.0,WeatherDisplay:10.37,2013-06-17 15:29:00,
2013-06-17 11:34:00,75.4,58.1,29.90,North,350,4.6,4.6,55,0.00,CLR,,0.00,810.0,WeatherDisplay:10.37,2013-06-17 15:34:00,
2013-06-17 11:39:00,75.8,59.0,29.90,West,278,2.0,2.0,56,0.00,CLR,,0.00,819.0,WeatherDisplay:10.37,2013-06-17 15:39:00,
2013-06-17 11:44:00,76.0,59.2,29.90,NNW,346,5.8,5.8,56,0.00,CLR,,0.00,831.0,WeatherDisplay:10.37,2013-06-17 15:44:00,
2013-06-17 11:49:00,75.9,59.1,29.90,NNW,335,5.8,5.8,56,0.00,CLR,,0.00,833.0,WeatherDisplay:10.37,2013-06-17 15:49:00,
2013-06-17 11:54:00,76.1,61.2,29.90,North,11,4.0,4.0,60,0.00,CLR,,0.00,844.0,WeatherDisplay:10.37,2013-06-17 15:54:00,
2013-06-17 11:59:00,76.3,57.9,29.90,NNW,339,8.1,8.1,53,0.00,CLR,,0.00,853.0,WeatherDisplay:10.37,2013-06-17 15:59:00,
2013-06-17 12:04:00,76.2,56.7,29.90,WNW,297,3.0,3.0,51,0.00,CLR,,0.00,861.0,WeatherDisplay:10.37,2013-06-17 16:04:00,
2013-06-17 12:09:00,76.5,56.5,29.90,North,5,1.1,1.1,50,0.00,CLR,,0.00,870.0,WeatherDisplay:10.37,2013-06-17 16:09:00,
2013-06-17 12:14:00,76.8,58.4,29.90,North,5,4.0,4.0,53,0.00,CLR,,0.00,875.0,WeatherDisplay:10.37,2013-06-17 16:14:00,
2013-06-17 12:19:00,76.9,60.5,29.90,NNE,14,4.6,4.6,57,0.00,CLR,,0.00,881.0,WeatherDisplay:10.37,2013-06-17 16:19:00,
2013-06-17 12:24:00,77.2,58.7,29.90,West,277,2.3,2.3,53,0.00,CLR,,0.00,891.0,WeatherDisplay:10.37,2013-06-17 16:24:00,
2013-06-17 12:29:00,77.3,58.8,29.89,North,5,3.5,3.5,53,0.00,CLR,,0.00,898.0,WeatherDisplay:10.37,2013-06-17 16:29:00,
2013-06-17 12:34:00,77.1,59.2,29.89,North,5,1.1,1.1,54,0.00,CLR,,0.00,904.0,WeatherDisplay:10.37,2013-06-17 16:34:00,
2013-06-17 12:39:00,77.0,57.5,29.88,NNW,348,4.6,4.6,51,0.00,CLR,,0.00,911.0,WeatherDisplay:10.37,2013-06-17 16:39:00,
2013-06-17 12:44:00,77.2,59.3,29.89,NNE,27,3.5,3.5,54,0.00,CLR,,0.00,914.0,WeatherDisplay:10.37,2013-06-17 16:44:00,
2013-06-17 12:49:00,77.6,61.7,29.88,ENE,78,1.1,1.1,58,0.00,CLR,,0.00,919.0,WeatherDisplay:10.37,2013-06-17 16:49:00,
2013-06-17 12:54:00,78.0,64.8,29.88,SSW,199,3.0,3.0,64,0.00,CLR,,0.00,925.0,WeatherDisplay:10.37,2013-06-17 16:54:00,
2013-06-17 12:59:00,78.4,60.4,29.88,SSW,198,4.0,4.0,54,0.00,CLR,,0.00,928.0,WeatherDisplay:10.37,2013-06-17 16:59:00,
2013-06-17 13:04:00,78.5,58.9,29.88,South,182,4.0,4.0,51,0.00,CLR,,0.00,935.0,WeatherDisplay:10.37,2013-06-17 17:04:00,
2013-06-17 13:09:00,78.6,60.0,29.88,South,186,4.6,4.6,53,0.00,CLR,,0.00,937.0,WeatherDisplay:10.37,2013-06-17 17:09:00,
2013-06-17 13:14:00,78.6,57.3,29.87,South,182,1.1,1.1,48,0.00,CLR,,0.00,937.0,WeatherDisplay:10.37,2013-06-17 17:14:00,
2013-06-17 13:19:00,78.6,60.6,29.87,SW,225,3.5,3.5,54,0.00,CLR,,0.00,940.0,WeatherDisplay:10.37,2013-06-17 17:19:00,
2013-06-17 13:24:00,78.7,58.5,29.87,WSW,237,1.1,1.1,50,0.00,CLR,,0.00,942.0,WeatherDisplay:10.37,2013-06-17 17:24:00,
2013-06-17 13:29:00,78.9,60.3,29.87,SW,217,5.8,5.8,53,0.00,CLR,,0.00,949.0,WeatherDisplay:10.37,2013-06-17 17:29:00,
2013-06-17 13:34:00,78.9,60.3,29.88,WNW,300,5.8,5.8,53,0.00,CLR,,0.00,946.0,WeatherDisplay:10.37,2013-06-17 17:34:00,
2013-06-17 13:39:00,79.1,59.4,29.87,WNW,294,4.0,4.0,51,0.00,CLR,,0.00,947.0,WeatherDisplay:10.37,2013-06-17 17:39:00,
2013-06-17 13:44:00,79.2,59.0,29.88,SW,229,4.6,4.6,50,0.00,CLR,,0.00,947.0,WeatherDisplay:10.37,2013-06-17 17:44:00,
2013-06-17 13:49:00,79.3,58.5,29.87,SW,229,5.0,5.0,49,0.00,CLR,,0.00,949.0,WeatherDisplay:10.37,2013-06-17 17:49:00,
2013-06-17 13:54:00,79.5,59.8,29.87,West,263,5.8,5.8,51,0.00,CLR,,0.00,947.0,WeatherDisplay:10.37,2013-06-17 17:54:00,
2013-06-17 13:59:00,79.3,58.5,29.87,South,175,3.5,3.5,49,0.00,CLR,,0.00,947.0,WeatherDisplay:10.37,2013-06-17 17:59:00,
2013-06-17 14:04:00,79.4,59.1,29.87,NW,314,5.8,5.8,50,0.00,CLR,,0.00,947.0,WeatherDisplay:10.37,2013-06-17 18:04:00,
2013-06-17 14:09:00,79.7,61.1,29.87,South,188,4.6,4.6,53,0.00,CLR,,0.00,947.0,WeatherDisplay:10.37,2013-06-17 18:09:00,
2013-06-17 14:14:00,80.1,58.6,29.87,NW,317,2.3,2.3,48,0.00,CLR,,0.00,946.0,WeatherDisplay:10.37,2013-06-17 18:14:00,
2013-06-17 14:19:00,80.4,61.7,29.86,West,281,2.3,2.3,53,0.00,CLR,,0.00,947.0,WeatherDisplay:10.37,2013-06-17 18:19:00,
2013-06-17 14:24:00,80.7,62.0,29.86,WNW,296,5.8,5.8,53,0.00,CLR,,0.00,947.0,WeatherDisplay:10.37,2013-06-17 18:24:00,
2013-06-17 14:29:00,80.8,60.4,29.86,SSE,158,4.6,4.6,50,0.00,CLR,,0.00,940.0,WeatherDisplay:10.37,2013-06-17 18:29:00,
2013-06-17 14:34:00,81.0,61.7,29.86,SW,219,4.0,4.0,52,0.00,CLR,,0.00,940.0,WeatherDisplay:10.37,2013-06-17 18:34:00,
2013-06-17 14:39:00,81.1,61.8,29.86,WSW,240,9.2,9.2,52,0.00,CLR,,0.00,935.0,WeatherDisplay:10.37,2013-06-17 18:39:00,
2013-06-17 14:44:00,81.1,59.0,29.85,WSW,240,1.1,1.1,47,0.00,CLR,,0.00,937.0,WeatherDisplay:10.37,2013-06-17 18:44:00,
2013-06-17 14:49:00,81.3,61.4,29.85,NW,322,3.5,3.5,51,0.00,CLR,,0.00,932.0,WeatherDisplay:10.37,2013-06-17 18:49:00,
2013-06-17 14:54:00,81.1,61.8,29.85,WNW,291,3.5,3.5,52,0.00,CLR,,0.00,932.0,WeatherDisplay:10.37,2013-06-17 18:54:00,
2013-06-17 14:59:00,81.2,61.4,29.85,WSW,248,2.3,2.3,51,0.00,CLR,,0.00,930.0,WeatherDisplay:10.37,2013-06-17 18:59:00,
2013-06-17 15:04:00,81.3,61.4,29.85,WSW,250,6.9,6.9,51,0.00,CLR,,0.00,925.0,WeatherDisplay:10.37,2013-06-17 19:04:00,
2013-06-17 15:09:00,81.5,61.1,29.84,SW,223,5.8,5.8,50,0.00,CLR,,0.00,919.0,WeatherDisplay:10.37,2013-06-17 19:09:00,
2013-06-17 15:14:00,81.9,60.9,29.84,SSW,200,4.0,4.0,49,0.00,CLR,,0.00,907.0,WeatherDisplay:10.37,2013-06-17 19:14:00,
2013-06-17 15:19:00,81.9,62.5,29.84,SW,218,5.8,5.8,52,0.00,CLR,,0.00,911.0,WeatherDisplay:10.37,2013-06-17 19:19:00,
2013-06-17 15:24:00,82.4,61.3,29.84,South,173,9.2,9.2,49,0.00,CLR,,0.00,909.0,WeatherDisplay:10.37,2013-06-17 19:24:00,
2013-06-17 15:29:00,82.4,63.5,29.84,SW,216,6.9,6.9,53,0.00,CLR,,0.00,884.0,WeatherDisplay:10.37,2013-06-17 19:29:00,
2013-06-17 15:34:00,82.6,62.6,29.84,WSW,256,5.8,5.8,51,0.00,CLR,,0.00,884.0,WeatherDisplay:10.37,2013-06-17 19:34:00,
2013-06-17 15:39:00,82.6,62.6,29.84,WNW,284,9.2,9.2,51,0.00,CLR,,0.00,879.0,WeatherDisplay:10.37,2013-06-17 19:39:00,
2013-06-17 15:44:00,82.8,64.5,29.84,SW,227,3.5,3.5,54,0.00,CLR,,0.00,858.0,WeatherDisplay:10.37,2013-06-17 19:44:00,
2013-06-17 15:49:00,83.2,62.6,29.84,West,274,6.9,6.9,50,0.00,CLR,,0.00,369.0,WeatherDisplay:10.37,2013-06-17 19:49:00,
2013-06-17 15:54:00,83.4,65.0,29.84,NW,304,6.9,6.9,54,0.00,CLR,,0.00,1093.0,WeatherDisplay:10.37,2013-06-17 19:54:00,
2013-06-17 15:59:00,83.0,64.1,29.84,NW,305,5.8,5.8,53,0.00,BKN,,0.00,394.0,WeatherDisplay:10.37,2013-06-17 19:59:00,
2013-06-17 16:04:00,82.8,63.4,29.84,WNW,301,4.6,4.6,52,0.00,SCT,,0.00,998.0,WeatherDisplay:10.37,2013-06-17 20:04:00,
2013-06-17 16:09:00,83.0,63.0,29.84,North,355,5.8,5.8,51,0.00,SCT,,0.00,594.0,WeatherDisplay:10.37,2013-06-17 20:09:00,
2013-06-17 16:14:00,83.0,63.6,29.84,NNE,25,11.5,11.5,52,0.00,CLR,,0.00,962.0,WeatherDisplay:10.37,2013-06-17 20:14:00,
2013-06-17 16:19:00,79.8,61.7,29.84,NNE,13,10.4,10.4,54,0.00,CLR,,0.00,911.0,WeatherDisplay:10.37,2013-06-17 20:19:00,
2013-06-17 16:24:00,77.0,60.6,29.84,NE,34,15.0,15.0,57,0.00,CLR,,0.00,974.0,WeatherDisplay:10.37,2013-06-17 20:24:00,
2013-06-17 16:29:00,75.4,61.0,29.84,North,360,15.0,15.0,61,0.00,CLR,,0.00,214.0,WeatherDisplay:10.37,2013-06-17 20:29:00,
2013-06-17 16:34:00,74.6,59.3,29.84,NNW,348,13.0,13.0,59,0.00,FEW,,0.00,782.0,WeatherDisplay:10.37,2013-06-17 20:34:00,
2013-06-17 16:39:00,74.4,60.5,29.84,North,349,5.0,5.0,62,0.00,FEW,,0.00,758.0,WeatherDisplay:10.37,2013-06-17 20:39:00,
2013-06-17 16:44:00,74.6,59.8,29.83,NE,42,6.9,6.9,60,0.00,FEW,,0.00,766.0,WeatherDisplay:10.37,2013-06-17 20:44:00,
2013-06-17 16:49:00,75.1,61.6,29.83,ENE,72,4.6,4.6,63,0.00,FEW,,0.00,763.0,WeatherDisplay:10.37,2013-06-17 20:49:00,
2013-06-17 16:54:00,75.2,60.8,29.83,East,98,6.9,6.9,61,0.00,FEW,,0.00,751.0,WeatherDisplay:10.37,2013-06-17 20:54:00,
2013-06-17 16:59:00,75.1,60.7,29.83,NE,42,5.8,5.8,61,0.00,SCT,,0.00,733.0,WeatherDisplay:10.37,2013-06-17 20:59:00,
2013-06-17 17:04:00,75.0,60.6,29.83,NNE,25,8.1,8.1,61,0.00,SCT,,0.00,740.0,WeatherDisplay:10.37,2013-06-17 21:04:00,
2013-06-17 17:09:00,74.4,61.0,29.82,East,87,6.0,6.0,63,0.00,BKN,,0.00,125.0,WeatherDisplay:10.37,2013-06-17 21:09:00,
2013-06-17 17:14:00,73.6,61.1,29.83,East,86,6.0,6.0,65,0.00,BKN,,0.00,130.0,WeatherDisplay:10.37,2013-06-17 21:14:00,
2013-06-17 17:19:00,72.9,60.4,29.83,NE,55,5.8,5.8,65,0.00,BKN,,0.00,151.0,WeatherDisplay:10.37,2013-06-17 21:19:00,
2013-06-17 17:24:00,72.3,61.1,29.83,ESE,113,5.0,5.0,68,0.00,BKN,,0.00,155.0,WeatherDisplay:10.37,2013-06-17 21:24:00,
2013-06-17 17:29:00,71.8,62.3,29.82,ENE,70,4.6,4.6,72,0.00,BKN,,0.00,113.0,WeatherDisplay:10.37,2013-06-17 21:29:00,
2013-06-17 17:34:00,71.6,62.9,29.81,East,94,3.5,3.5,74,0.00,SCT,,0.00,606.0,WeatherDisplay:10.37,2013-06-17 21:34:00,
2013-06-17 17:39:00,71.9,63.9,29.83,WNW,283,7.0,7.0,76,0.00,BKN,,0.00,239.0,WeatherDisplay:10.37,2013-06-17 21:39:00,
2013-06-17 17:44:00,72.8,63.6,29.83,NNE,24,2.3,2.3,73,0.00,SCT,,0.00,631.0,WeatherDisplay:10.37,2013-06-17 21:44:00,
2013-06-17 17:50:00,73.5,63.1,29.82,ENE,72,4.6,4.6,70,0.00,SCT,,0.00,575.0,WeatherDisplay:10.37,2013-06-17 21:50:00,
2013-06-17 17:55:00,74.0,64.0,29.82,East,80,3.0,3.6,71,0.00,SCT,,0.00,584.0,WeatherDisplay:10.37,2013-06-17 21:55:00,
2013-06-17 18:00:00,74.6,63.8,29.81,ESE,104,2.3,2.3,69,0.00,SCT,,0.00,533.0,WeatherDisplay:10.37,2013-06-17 22:00:00,
2013-06-17 18:05:00,75.0,62.4,29.82,East,83,4.6,4.6,65,0.00,SCT,,0.00,566.0,WeatherDisplay:10.37,2013-06-17 22:05:00,
2013-06-17 18:10:00,75.2,63.5,29.81,East,89,4.6,4.6,67,0.00,BKN,,0.00,550.0,WeatherDisplay:10.37,2013-06-17 22:10:00,
2013-06-17 18:15:00,75.4,61.9,29.81,East,86,4.6,4.6,63,0.00,BKN,,0.00,545.0,WeatherDisplay:10.37,2013-06-17 22:15:00,
2013-06-17 18:20:00,75.6,61.7,29.81,East,88,3.5,3.5,62,0.00,BKN,,0.00,531.0,WeatherDisplay:10.37,2013-06-17 22:20:00,
2013-06-17 18:25:00,75.7,62.7,29.81,East,79,5.8,5.8,64,0.00,BKN,,0.00,483.0,WeatherDisplay:10.37,2013-06-17 22:25:00,
2013-06-17 18:30:00,75.8,62.8,29.81,East,88,2.0,6.0,64,0.00,BKN,,0.00,496.0,WeatherDisplay:10.37,2013-06-17 22:30:00,
2013-06-17 18:35:00,76.0,62.9,29.80,East,83,0.0,3.0,64,0.00,BKN,,0.00,441.0,WeatherDisplay:10.37,2013-06-17 22:35:00,
2013-06-17 18:40:00,76.3,62.8,29.80,East,96,0.0,2.0,63,0.00,BKN,,0.00,450.0,WeatherDisplay:10.37,2013-06-17 22:40:00,
2013-06-17 18:45:00,76.5,62.9,29.79,SSE,154,0.0,3.0,63,0.00,BKN,,0.00,429.0,WeatherDisplay:10.37,2013-06-17 22:45:00,
2013-06-17 18:50:00,76.7,63.1,29.78,SSE,168,1.0,5.0,63,0.00,BKN,,0.00,292.0,WeatherDisplay:10.37,2013-06-17 22:50:00,
2013-06-17 18:55:00,76.7,63.6,29.78,SSE,160,1.0,4.0,64,0.00,BKN,,0.00,311.0,WeatherDisplay:10.37,2013-06-17 22:55:00,
2013-06-17 19:00:00,76.6,63.5,29.78,SSE,153,0.0,2.0,64,0.00,BKN,,0.00,272.0,WeatherDisplay:10.37,2013-06-17 23:00:00,
2013-06-17 19:05:00,76.6,62.6,29.79,South,182,3.5,3.5,62,0.00,BKN,,0.00,274.0,WeatherDisplay:10.37,2013-06-17 23:05:00,
2013-06-17 19:10:00,76.6,62.6,29.81,South,182,1.0,1.0,62,0.00,BKN,,0.00,274.0,WeatherDisplay:10.37,2013-06-17 23:10:00,
2013-06-17 19:15:00,76.4,63.8,29.83,North,11,21.0,21.0,65,0.00,BKN,,0.00,269.0,WeatherDisplay:10.37,2013-06-17 23:15:00,
2013-06-17 19:20:00,74.3,62.2,29.83,North,11,12.0,28.0,66,0.00,BKN,,0.00,172.0,WeatherDisplay:10.37,2013-06-17 23:20:00,
2013-06-17 19:25:00,72.5,62.6,29.84,NNE,18,6.0,24.0,71,0.00,BKN,,0.00,153.0,WeatherDisplay:10.37,2013-06-17 23:25:00,
2013-06-17 19:30:00,71.2,62.1,29.84,NNE,31,12.0,17.0,73,0.00,BKN,,0.00,200.0,WeatherDisplay:10.37,2013-06-17 23:30:00,
2013-06-17 19:35:00,69.7,60.7,29.84,NNE,28,14.0,20.0,73,0.00,BKN,,0.00,160.0,WeatherDisplay:10.37,2013-06-17 23:35:00,
2013-06-17 19:40:00,68.5,60.6,29.85,NNE,30,5.0,15.0,76,0.00,BKN,,0.00,116.0,WeatherDisplay:10.37,2013-06-17 23:40:00,
2013-06-17 19:45:00,67.7,60.6,29.84,NE,50,5.0,9.0,78,0.00,BKN,,0.00,100.0,WeatherDisplay:10.37,2013-06-17 23:45:00,
2013-06-17 19:50:00,67.2,60.5,29.84,ENE,70,5.0,8.0,79,0.00,BKN,,0.00,132.0,WeatherDisplay:10.37,2013-06-17 23:50:00,
2013-06-17 19:55:00,67.1,61.1,29.85,ENE,73,1.0,7.0,81,0.00,BKN,,0.00,90.0,WeatherDisplay:10.37,2013-06-17 23:55:00,
2013-06-17 20:00:00,67.1,61.1,29.85,ENE,64,9.2,9.2,81,0.00,BKN,,0.00,81.0,WeatherDisplay:10.37,2013-06-18 00:00:00,
2013-06-17 20:05:00,67.1,61.4,29.85,East,94,4.6,4.6,82,0.00,BKN,,0.00,63.0,WeatherDisplay:10.37,2013-06-18 00:05:00,
2013-06-17 20:10:00,67.0,61.0,29.84,East,86,5.0,5.0,81,0.00,CLR,,0.00,54.0,WeatherDisplay:10.37,2013-06-18 00:10:00,
2013-06-17 20:15:00,66.8,60.8,29.84,East,85,2.0,7.0,81,0.00,CLR,,0.00,40.0,WeatherDisplay:10.37,2013-06-18 00:15:00,
2013-06-17 20:20:00,66.6,60.9,29.85,East,88,2.0,7.0,82,0.00,CLR,,0.00,35.0,WeatherDisplay:10.37,2013-06-18 00:20:00,
2013-06-17 20:25:00,66.4,60.7,29.84,East,88,2.0,7.0,82,0.00,CLR,,0.00,42.0,WeatherDisplay:10.37,2013-06-18 00:25:00,
2013-06-17 20:30:00,66.2,60.9,29.85,East,87,1.0,8.0,83,0.00,CLR,,0.00,33.0,WeatherDisplay:10.37,2013-06-18 00:30:00,
2013-06-17 20:35:00,66.0,60.7,29.85,East,89,3.0,7.0,83,0.00,CLR,,0.00,25.0,WeatherDisplay:10.37,2013-06-18 00:35:00,
2013-06-17 20:40:00,65.8,60.5,29.86,East,85,0.0,4.0,83,0.00,CLR,,0.00,19.0,WeatherDisplay:10.37,2013-06-18 00:40:00,
2013-06-17 20:45:00,65.7,60.7,29.86,East,87,1.0,3.0,84,0.00,CLR,,0.00,16.0,WeatherDisplay:10.37,2013-06-18 00:45:00,
2013-06-17 20:50:00,65.5,60.5,29.86,ESE,108,1.0,3.0,84,0.00,CLR,,0.00,12.0,WeatherDisplay:10.37,2013-06-18 00:50:00,
2013-06-17 20:55:00,65.3,60.3,29.86,East,89,2.3,2.3,84,0.00,CLR,,0.00,11.0,WeatherDisplay:10.37,2013-06-18 00:55:00,
2013-06-17 21:00:00,65.1,60.1,29.86,East,99,2.3,2.3,84,0.00,CLR,,0.00,9.0,WeatherDisplay:10.37,2013-06-18 01:00:00,
2013-06-17 21:05:00,64.9,59.9,29.87,East,87,0.0,3.0,84,0.00,CLR,,0.00,7.0,WeatherDisplay:10.37,2013-06-18 01:05:00,
2013-06-17 21:10:00,64.7,59.8,29.87,East,83,2.3,2.3,84,0.00,CLR,,0.00,7.0,WeatherDisplay:10.37,2013-06-18 01:10:00,
2013-06-17 21:15:00,64.6,60.0,29.88,East,83,0.0,2.0,85,0.00,CLR,,0.00,5.0,WeatherDisplay:10.37,2013-06-18 01:15:00,
2013-06-17 21:20:00,64.5,59.9,29.88,East,85,1.0,3.0,85,0.00,CLR,,0.00,0.0,WeatherDisplay:10.37,2013-06-18 01:20:00,
2013-06-17 21:25:00,64.4,59.8,29.88,East,90,1.0,3.0,85,0.00,CLR,,0.00,0.0,WeatherDisplay:10.37,2013-06-18 01:25:00,
2013-06-17 21:30:00,64.4,59.8,29.88,East,90,1.0,3.0,85,0.00,CLR,,0.00,0.0,WeatherDisplay:10.37,2013-06-18 01:30:00,
2013-06-17 21:35:00,64.3,60.0,29.87,ENE,59,1.0,4.0,86,0.00,CLR,,0.00,0.0,WeatherDisplay:10.37,2013-06-18 01:35:00,
2013-06-17 21:40:00,64.3,60.0,29.87,NE,42,0.0,2.0,86,0.00,CLR,,0.00,0.0,WeatherDisplay:10.37,2013-06-18 01:40:00,
2013-06-17 21:45:00,64.1,59.8,29.87,East,84,3.5,3.5,86,0.00,CLR,,0.00,0.0,WeatherDisplay:10.37,2013-06-18 01:45:00,
2013-06-17 21:50:00,64.0,59.7,29.87,East,82,3.5,3.5,86,0.00,CLR,,0.00,0.0,WeatherDisplay:10.37,2013-06-18 01:50:00,
2013-06-17 21:55:00,63.9,59.6,29.88,ENE,69,1.1,1.1,86,0.00,CLR,,0.00,0.0,WeatherDisplay:10.37,2013-06-18 01:55:00,
2013-06-17 22:00:00,63.7,59.4,29.88,NE,47,3.0,5.0,86,0.00,CLR,,0.00,0.0,WeatherDisplay:10.37,2013-06-18 02:00:00,
2013-06-17 22:05:00,63.6,59.7,29.88,NE,45,1.0,2.0,87,0.00,CLR,,0.00,0.0,WeatherDisplay:10.37,2013-06-18 02:05:00,
2013-06-17 22:10:00,63.5,59.9,29.89,NE,56,1.0,3.0,88,0.00,CLR,,0.00,0.0,WeatherDisplay:10.37,2013-06-18 02:10:00,
2013-06-17 22:15:00,63.5,59.9,29.89,NE,53,0.0,2.0,88,0.00,CLR,,0.00,0.0,WeatherDisplay:10.37,2013-06-18 02:15:00,
2013-06-17 22:20:00,63.4,59.8,29.89,ENE,74,1.0,5.0,88,0.00,CLR,,0.00,0.0,WeatherDisplay:10.37,2013-06-18 02:20:00,
2013-06-17 22:25:00,63.3,59.6,29.89,East,80,1.0,3.0,88,0.00,CLR,,0.00,0.0,WeatherDisplay:10.37,2013-06-18 02:25:00,
2013-06-17 22:30:00,63.1,59.5,29.89,East,81,0.0,2.0,88,0.00,CLR,,0.00,0.0,WeatherDisplay:10.37,2013-06-18 02:30:00,
2013-06-17 22:35:00,63.0,59.7,29.90,NE,49,1.0,4.0,89,0.00,CLR,,0.00,0.0,WeatherDisplay:10.37,2013-06-18 02:35:00,
2013-06-17 22:40:00,62.9,59.6,29.90,NE,34,3.0,5.0,89,0.00,CLR,,0.00,0.0,WeatherDisplay:10.37,2013-06-18 02:40:00,
2013-06-17 22:45:00,62.8,59.8,29.91,North,351,11.5,11.5,90,0.01,RA,,0.01,0.0,WeatherDisplay:10.37,2013-06-18 02:45:00,
2013-06-17 22:50:00,62.6,59.6,29.89,East,94,10.4,10.4,90,0.01,RA,,0.01,0.0,WeatherDisplay:10.37,2013-06-18 02:50:00,
2013-06-17 22:55:00,62.1,59.2,29.89,ENE,61,3.0,8.0,90,0.00,CLR,,0.01,0.0,WeatherDisplay:10.37,2013-06-18 02:55:00,
2013-06-17 23:00:00,61.8,59.1,29.90,ENE,77,1.0,6.0,91,0.00,CLR,,0.01,0.0,WeatherDisplay:10.37,2013-06-18 03:00:00,
2013-06-17 23:05:00,61.5,58.9,29.90,East,84,0.0,5.0,91,0.00,CLR,,0.01,0.0,WeatherDisplay:10.37,2013-06-18 03:05:00,
2013-06-17 23:10:00,61.3,59.0,29.90,East,92,1.0,3.0,92,0.00,CLR,,0.01,0.0,WeatherDisplay:10.37,2013-06-18 03:10:00,
2013-06-17 23:15:00,61.1,58.8,29.90,East,94,3.0,7.0,92,0.00,CLR,,0.01,0.0,WeatherDisplay:10.37,2013-06-18 03:15:00,
2013-06-17 23:20:00,60.9,58.6,29.91,East,82,2.0,5.0,92,0.00,CLR,,0.01,0.0,WeatherDisplay:10.37,2013-06-18 03:20:00,
2013-06-17 23:25:00,60.8,58.4,29.90,ENE,67,1.0,3.0,92,0.00,CLR,,0.01,0.0,WeatherDisplay:10.37,2013-06-18 03:25:00,
2013-06-17 23:30:00,60.7,58.7,29.90,ENE,61,3.5,3.5,93,0.01,CLR,,0.01,0.0,WeatherDisplay:10.37,2013-06-18 03:30:00,
2013-06-17 23:35:00,60.5,58.5,29.90,NNE,28,4.6,4.6,93,0.01,CLR,,0.01,0.0,WeatherDisplay:10.37,2013-06-18 03:35:00,
2013-06-17 23:40:00,60.3,58.3,29.90,ENE,65,3.5,3.5,93,0.01,CLR,,0.01,0.0,WeatherDisplay:10.37,2013-06-18 03:40:00,
2013-06-17 23:45:00,60.2,58.2,29.91,ENE,58,0.0,2.0,93,0.00,CLR,,0.01,0.0,WeatherDisplay:10.37,2013-06-18 03:45:00,
2013-06-17 23:50:00,60.2,58.2,29.91,NE,55,2.3,2.3,93,0.00,CLR,,0.01,0.0,WeatherDisplay:10.37,2013-06-18 03:50:00,
2013-06-17 23:55:00,60.2,58.2,29.92,North,10,3.0,5.0,93,0.00,CLR,,0.01,0.0,WeatherDisplay:10.37,2013-06-18 03:55:00,